This is the latest recevied weather packets stored in our database for station/object G8PZT. If no packets are shown the sender has not sent any weather packets the latest 10 day(s).
| Time | Temp. | Humidity | Pressure | Rain* | Wind** | Luminosity | Snow |
|---|---|---|---|---|---|---|---|
| 1777996316 | 16.11° C | 22% | - | 0 mm | - | - | - |
| 1777994516 | 16.67° C | 22% | - | 0 mm | - | - | - |
| 1777993916 | 16.11° C | 22% | - | 0 mm | - | - | - |
| 1777993316 | 16.67° C | 22% | - | 0 mm | - | - | - |
| 1777992115 | 16.67° C | 22% | - | 0 mm | - | - | - |
| 1777992002 | 16.67° C | 22% | - | 0 mm | - | - | - |
| 1777991515 | 16.11° C | 22% | - | 0 mm | - | - | - |
| 1777990915 | 16.11° C | 23% | - | 0 mm | - | - | - |
| 1777990802 | 15.56° C | 23% | - | 0 mm | - | - | - |
| 1777989602 | 16.11° C | 22% | - | 0 mm | - | - | - |
| 1777989116 | 16.11° C | 22% | - | 0 mm | - | - | - |
| 1777988516 | 17.22° C | 22% | - | 0 mm | - | - | - |
| 1777988403 | 16.67° C | 22% | - | 0 mm | - | - | - |
| 1777987916 | 15° C | 24% | - | 0 mm | - | - | - |
| 1777987316 | 15° C | 23% | - | 0 mm | - | - | - |
| 1777987203 | 15° C | 23% | - | 0 mm | - | - | - |
| 1777986716 | 14.44° C | 24% | - | 0 mm | - | - | - |
| 1777986116 | 13.89° C | 28% | - | 0 mm | - | - | - |
| 1777986001 | 13.89° C | 27% | - | 0 mm | - | - | - |
| 1777985516 | 13.89° C | 26% | - | 0 mm | - | - | - |
| 1777984803 | 13.89° C | 24% | - | 0 mm | - | - | - |
| 1777984315 | 14.44° C | 24% | - | 0 mm | - | - | - |
| 1777983716 | 14.44° C | 23% | - | 0 mm | - | - | - |
| 1777983602 | 14.44° C | 23% | - | 0 mm | - | - | - |
| 1777982516 | 14.44° C | 23% | - | 0 mm | - | - | - |
* Rain latest hour (hover to see other rain measurements)
** Current wind speed in m/s (hover to see current wind gust speed)